Temp
62 62 62 62 61 61 61 61 61 61 61 61 61 61 61 61 60 55 60 73 71 72 76 73 69 69 67 65 65 62 56 51 54 58 59 66 65 70 73 69 70 73 72 73 74
62 62 62 62 61 61 61 61 61 61 61 61 61 61 60 60 53 59 73 74 74 74 72 70 66 68 65 62 64 60 53 58 64 63 62 66 67 69 69 67 67 70 73 74 72
61 61 61 61 61 60 61 61 61 61 61 61 60 60 60 58 58 71 76 74 74 74 73 72 70 67 59 59 60 56 59 63 66 69 68 66 66 69 67 62 68 66 68 71 70
60 61 61 60 60 60 60 61 61 61 61 60 60 60 60 55 58 71 75 74 74 74 73 72 66 58 57 57 60 56 65 65 65 68 66 65 68 69 69 71 73 73 72 72 69
59 60 60 60 60 60 60 60 60 60 60 59 60 60 55 60 68 72 75 74 74 73 72 68 62 60 56 58 61 57 64 64 65 68 65 69 65 66 65 72 73 74 72 70 70
59 59 59 59 60 60 60 59 59 59 59 59 60 60 58 58 76 75 74 73 74 71 68 70 66 67 62 60 60 64 63 66 67 63 65 66 63 67 68 71 71 73 71 70 69
58 58 58 59 60 60 60 59 58 58 59 60 61 62 59 69 76 74 74 71 73 76 72 72 72 69 66 62 64 64 61 62 63 62 65 67 63 60 67 70 70 71 70 70 70
58 58 58 59 59 59 60 58 58 58 60 60 62 57 61 76 73 72 70 73 73 75 74 79 74 69 62 65 66 59 58 55 62 65 64 66 57 63 66 65 67 69 69 69 69
58 58 58 58 59 59 58 58 58 60 61 62 56 56 64 77 74 78 78 78 77 76 75 85 71 63 65 58 55 55 51 51 62 62 63 63 56 62 66 65 65 66 68 68 68
58 57 57 58 58 58 57 57 60 60 61 65 67 58 68 71 75 80 77 80 76 74 74 71 64 60 56 57 50 51 52 51 54 62 62 57 54 60 63 65 65 65 66 66 67
58 57 57 57 58 58 53 57 61 62 60 65 68 68 71 78 78 76 79 77 75 71 60 63 61 56 58 59 60 58 56 56 58 64 60 54 55 58 61 62 63 65 66 66 66
57 57 57 57 57 56 51 62 63 61 55 68 70 71 75 75 69 74 81 70 66 60 61 60 55 62 65 63 61 59 56 54 60 64 59 55 55 60 61 62 63 64 64 65 65
56 56 56 56 56 56 56 64 66 63 54 66 69 71 73 75 71 71 77 69 64 61 61 58 63 68 67 60 61 58 57 57 59 62 62 59 54 55 61 61 64 65 65 64 63
56 56 56 54 58 54 62 68 67 65 52 60 65 73 74 73 68 78 78 73 63 63 62 60 66 65 61 63 64 56 66 65 62 57 49 58 45 51 54 57 61 62 62 63 63
56 56 56 55 51 55 69 65 66 64 40 66 66 76 71 72 71 69 75 72 65 65 64 62 62 63 61 66 68 62 68 62 61 54 51 52 49 49 52 53 57 60 61 63 64
56 56 56 52 49 57 62 63 63 53 43 63 67 66 65 66 68 69 71 74 71 65 63 64 69 68 69 69 68 67 63 57 52 50 47 49 50 50 49 56 59 62 62 64 65
55 55 52 55 58 61 63 64 53 45 63 60 59 63 62 62 64 67 64 61 58 53 53 62 64 69 73 65 65 62 53 44 44 43 44 51 50 54 58 61 65 64 63 63 64
54 53 50 52 53 61 62 59 44 57 57 65 65 61 60 63 62 63 60 57 60 58 54 53 54 65 71 66 62 54 54 46 40 40 45 53 47 56 62 63 64 65 64 64 63
52 47 47 52 55 58 59 48 51 54 63 62 63 56 56 62 62 60 58 58 62 63 55 51 56 69 70 69 65 57 51 54 46 43 44 47 54 62 61 61 63 64 64 63 63
45 44 50 58 59 58 55 49 56 64 66 64 55 59 54 57 58 57 57 63 64 66 63 59 55 65 69 69 67 62 61 52 46 40 38 44 46 51 56 60 63 63 63 63 64
46 48 59 58 59 57 49 51 59 67 68 61 58 58 59 56 58 55 60 64 67 64 65 60 56 60 65 60 59 59 53 48 47 44 40 38 47 56 59 61 62 63 64 64 65
43 45 60 59 51 47 51 58 59 64 67 65 61 60 59 60 58 56 58 62 67 66 62 62 57 52 56 63 64 59 55 52 46 44 41 42 48 59 58 61 61 65 66 65 66
40 41 55 58 45 47 57 60 63 63 63 63 62 64 62 58 54 60 60 65 66 66 63 63 53 47 52 59 61 59 57 52 48 45 43 43 47 61 60 60 61 62 64 65 63
42 42 48 50 49 48 50 54 58 66 64 65 64 64 59 56 57 56 59 65 66 63 62 62 50 52 49 52 55 54 57 55 49 44 44 45 51 57 58 56 58 58 60 61 62
40 41 44 42 47 45 47 55 55 55 63 62 60 61 58 52 55 54 59 62 66 63 59 60 51 52 53 58 58 56 57 56 51 51 49 51 51 56 56 54 56 57 59 59 58
41 40 43 42 45 45 45 50 55 54 56 58 57 61 60 55 57 54 56 56 57 61 56 56 51 52 51 57 58 55 56 56 55 54 53 53 53 55 57 58 57 56 58 56 56
41 42 43 43 44 44 45 49 55 54 57 60 60 58 57 60 62 59 59 58 57 56 54 53 51 48 45 52 53 48 53 55 54 54 54 50 54 54 55 56 54 55 56 56 56
MSLP
1018.96 1018.56 1018.22 1017.81 1017.50 1016.93 1016.17 1015.69 1015.44 1014.93 1014.63 1014.31 1013.94 1013.63 1013.31 1013.03 1012.36 1012.35 1011.18 1008.92 1008.90 1008.87 1009.05 1009.45 1009.81 1009.75 1009.81 1010.15 1010.49 1011.00 1012.09 1012.48 1011.61 1010.95 1010.70 1010.66 1010.91 1011.18 1011.47 1011.33 1011.60 1011.48 1011.56 1012.02 1012.74
1019.09 1018.73 1018.16 1017.70 1017.25 1016.73 1016.02 1015.61 1015.28 1014.90 1014.48 1014.17 1013.84 1013.56 1013.27 1012.86 1012.45 1011.23 1008.39 1008.42 1008.65 1008.92 1009.14 1009.44 1009.71 1009.63 1010.03 1010.17 1010.51 1010.96 1011.97 1011.56 1010.56 1010.07 1010.20 1010.40 1010.63 1011.31 1011.51 1011.52 1011.53 1011.57 1011.90 1012.19 1012.98
1019.30 1018.81 1018.14 1017.56 1017.01 1016.44 1015.83 1015.45 1015.09 1014.77 1014.29 1014.01 1013.72 1013.50 1013.07 1012.70 1012.04 1009.01 1007.80 1008.35 1008.59 1008.91 1008.95 1009.23 1009.45 1009.55 1009.86 1010.07 1010.29 1010.58 1010.76 1010.34 1009.86 1009.45 1009.70 1010.50 1011.02 1011.24 1011.46 1011.79 1010.90 1011.66 1012.45 1012.61 1012.88
1019.21 1018.63 1018.05 1017.39 1016.74 1016.21 1015.78 1015.37 1014.84 1014.60 1014.19 1013.80 1013.58 1013.21 1012.82 1012.45 1010.78 1008.44 1007.89 1008.17 1008.51 1008.73 1008.88 1009.22 1009.50 1009.73 1009.92 1009.99 1010.03 1010.12 1009.60 1009.59 1009.60 1009.33 1010.00 1010.84 1011.24 1011.55 1011.51 1010.85 1010.66 1011.04 1011.83 1012.49 1013.37
1019.06 1018.54 1017.97 1017.37 1016.66 1016.22 1015.74 1015.12 1014.72 1014.55 1014.16 1013.58 1013.34 1013.11 1012.60 1011.50 1009.32 1008.40 1008.06 1008.24 1008.62 1008.79 1008.91 1009.23 1009.39 1009.53 1009.74 1009.80 1009.80 1009.90 1009.33 1009.23 1009.40 1009.38 1009.91 1010.34 1010.98 1011.51 1011.60 1010.86 1010.90 1010.97 1011.91 1012.82 1013.56
1019.19 1018.42 1017.99 1017.28 1016.50 1015.88 1015.44 1014.81 1014.44 1014.32 1013.84 1013.20 1013.19 1013.13 1012.43 1010.61 1007.99 1008.15 1008.12 1008.48 1008.55 1008.76 1008.90 1009.07 1009.09 1009.08 1009.42 1009.61 1009.66 1009.45 1009.27 1009.23 1009.34 1009.31 1009.73 1010.35 1011.39 1011.51 1011.70 1011.36 1011.29 1011.51 1011.81 1013.39 1013.93
1019.12 1018.41 1017.72 1017.10 1016.23 1015.52 1015.10 1014.47 1013.94 1013.64 1013.05 1012.84 1013.11 1012.99 1011.93 1008.95 1007.94 1008.15 1008.12 1008.20 1008.36 1008.44 1008.68 1008.78 1008.79 1009.09 1009.24 1009.50 1009.35 1009.41 1009.40 1009.34 1009.55 1009.53 1010.05 1010.27 1011.43 1011.88 1011.69 1011.67 1011.62 1011.76 1012.52 1013.56 1013.72
1019.12 1018.33 1017.89 1017.11 1016.12 1015.49 1014.66 1013.83 1013.07 1012.77 1012.57 1012.72 1013.03 1012.72 1010.63 1007.67 1007.75 1008.25 1008.06 1008.07 1008.22 1008.32 1008.45 1008.33 1008.64 1009.04 1009.37 1009.55 1009.66 1009.95 1009.79 1009.86 1009.48 1009.44 1010.37 1011.01 1011.76 1012.31 1012.16 1012.32 1012.39 1012.27 1012.55 1013.24 1013.54
1019.04 1018.41 1017.80 1016.90 1015.94 1015.04 1014.05 1013.39 1012.65 1012.49 1012.26 1012.72 1012.93 1012.16 1009.50 1007.43 1007.69 1007.48 1007.49 1007.71 1007.98 1008.06 1008.15 1008.31 1008.67 1009.53 1009.85 1010.12 1010.45 1010.59 1010.55 1010.39 1010.02 1009.95 1010.29 1010.86 1012.27 1012.80 1013.01 1013.13 1013.05 1012.87 1013.01 1013.37 1013.37
1018.97 1018.12 1017.36 1016.54 1015.45 1014.55 1013.41 1012.68 1012.81 1012.55 1012.39 1012.85 1012.32 1011.79 1008.93 1007.56 1007.01 1007.11 1007.31 1007.46 1007.76 1007.85 1008.26 1008.55 1009.55 1010.09 1010.67 1010.55 1011.16 1010.96 1010.86 1010.71 1010.77 1010.53 1011.06 1011.78 1012.91 1013.38 1013.56 1013.69 1013.60 1013.57 1013.35 1013.82 1013.60
1018.82 1017.89 1017.33 1016.31 1015.13 1014.52 1013.36 1012.75 1013.50 1012.70 1012.24 1011.63 1010.72 1009.73 1008.34 1007.13 1006.66 1006.75 1007.02 1007.40 1007.65 1008.26 1008.85 1009.34 1010.07 1010.23 1010.09 1010.35 1010.46 1010.54 1010.67 1010.84 1010.92 1011.09 1011.72 1012.83 1013.45 1013.80 1013.93 1014.13 1014.04 1014.07 1013.66 1013.72 1013.74
1018.63 1017.92 1017.30 1016.15 1014.79 1014.49 1014.09 1013.64 1013.74 1013.86 1012.38 1010.02 1009.40 1008.88 1007.87 1007.28 1006.96 1006.74 1006.79 1007.42 1007.93 1008.70 1009.12 1009.79 1009.67 1009.49 1009.58 1009.75 1010.08 1010.21 1010.34 1010.94 1011.17 1011.41 1012.22 1013.54 1014.14 1014.09 1014.22 1014.34 1014.06 1014.20 1013.99 1013.59 1013.65
1018.72 1018.12 1017.17 1015.92 1014.62 1014.19 1014.56 1013.44 1013.05 1012.96 1012.62 1009.27 1008.18 1007.70 1007.01 1007.07 1006.79 1006.61 1006.82 1007.25 1007.87 1008.57 1008.98 1009.35 1008.77 1008.61 1008.71 1008.91 1009.02 1009.28 1009.67 1010.29 1010.93 1011.97 1013.13 1013.66 1014.75 1014.83 1014.48 1014.55 1014.07 1013.93 1013.90 1013.70 1013.57
1018.28 1017.66 1017.03 1015.62 1014.77 1015.05 1014.04 1012.96 1012.83 1012.90 1012.08 1009.09 1007.54 1006.12 1006.31 1006.35 1006.51 1006.17 1006.36 1007.08 1007.66 1008.09 1008.54 1008.68 1008.04 1007.87 1008.07 1008.10 1008.27 1008.64 1008.63 1009.81 1010.89 1012.15 1013.38 1013.81 1015.53 1015.29 1015.00 1014.90 1014.80 1014.42 1013.92 1013.47 1013.47
1018.28 1017.72 1017.50 1017.11 1016.64 1015.54 1013.31 1012.61 1012.27 1012.40 1011.02 1008.10 1006.70 1005.33 1005.74 1006.16 1006.25 1006.32 1006.16 1006.71 1007.33 1007.70 1008.14 1008.02 1007.55 1007.30 1007.32 1007.17 1007.45 1008.48 1008.70 1010.11 1011.19 1012.35 1013.17 1014.04 1014.83 1014.78 1015.04 1015.21 1014.81 1014.47 1014.24 1013.58 1013.45
1018.06 1017.75 1017.36 1017.05 1016.76 1014.20 1013.20 1012.47 1012.26 1012.34 1009.98 1007.54 1006.23 1005.73 1006.09 1006.07 1006.12 1006.42 1006.43 1006.68 1007.11 1007.61 1007.85 1007.58 1006.91 1006.68 1006.42 1006.74 1007.26 1008.37 1009.45 1011.10 1012.34 1013.33 1014.33 1013.99 1014.38 1014.08 1014.48 1013.69 1014.12 1014.14 1014.11 1013.83 1013.46
1017.63 1016.79 1017.05 1016.44 1014.84 1013.51 1012.98 1012.80 1012.56 1011.34 1008.97 1007.81 1006.88 1006.34 1006.30 1006.42 1006.41 1006.53 1007.01 1007.35 1007.71 1008.10 1008.34 1007.44 1006.67 1006.17 1006.00 1006.79 1007.61 1008.55 1010.58 1012.65 1014.21 1014.71 1014.71 1014.27 1014.13 1012.83 1012.22 1012.07 1012.06 1012.60 1013.17 1013.53 1013.59
1016.93 1015.91 1015.41 1014.75 1014.07 1013.67 1013.34 1013.04 1012.38 1010.56 1009.47 1008.28 1007.47 1006.87 1006.54 1006.53 1006.62 1006.89 1007.33 1007.81 1007.97 1008.16 1008.53 1008.02 1006.99 1006.21 1006.02 1006.49 1007.57 1009.06 1010.39 1012.26 1014.18 1015.50 1015.02 1014.30 1013.73 1012.31 1011.69 1011.42 1011.99 1012.25 1013.05 1013.55 1013.88
1016.50 1015.66 1015.36 1013.85 1013.78 1013.92 1013.83 1013.14 1011.74 1010.66 1009.84 1008.68 1007.55 1007.11 1006.89 1006.60 1006.82 1007.07 1007.51 1007.86 1007.82 1007.97 1008.36 1008.13 1007.20 1006.32 1006.25 1006.52 1007.36 1009.19 1010.71 1011.93 1013.83 1015.42 1015.51 1014.83 1013.58 1012.05 1011.70 1011.88 1012.31 1012.68 1013.04 1013.23 1013.66
1017.50 1016.53 1014.93 1013.56 1013.46 1013.66 1013.53 1012.55 1011.51 1010.51 1009.61 1008.87 1008.61 1007.72 1007.22 1006.89 1007.02 1007.16 1007.39 1007.02 1007.41 1007.41 1007.45 1007.89 1007.68 1006.96 1006.68 1006.82 1007.74 1008.55 1010.58 1012.17 1013.90 1015.54 1015.89 1015.10 1014.15 1012.99 1012.13 1012.07 1012.36 1012.58 1012.48 1012.77 1013.09
1017.61 1016.76 1014.24 1013.38 1013.59 1013.49 1013.41 1012.40 1011.22 1010.15 1009.49 1009.22 1008.84 1008.37 1007.46 1006.88 1007.01 1007.16 1007.21 1006.75 1006.64 1007.32 1007.50 1008.02 1008.24 1007.92 1007.54 1007.88 1008.43 1009.46 1010.82 1012.72 1014.28 1015.29 1015.80 1015.56 1014.27 1012.39 1011.99 1011.75 1012.30 1012.22 1012.33 1012.39 1012.47
1018.25 1017.11 1014.02 1013.61 1014.05 1014.00 1013.25 1012.00 1010.79 1010.00 1009.58 1009.39 1008.91 1008.39 1007.56 1007.00 1007.07 1007.16 1007.00 1006.57 1006.38 1006.86 1007.86 1008.17 1008.80 1009.01 1008.92 1008.71 1008.59 1009.21 1010.81 1012.29 1014.21 1015.49 1015.75 1015.24 1013.79 1012.40 1012.11 1011.87 1011.84 1011.44 1011.34 1011.69 1011.82
1019.12 1017.63 1014.47 1014.04 1014.64 1014.33 1013.02 1011.91 1011.09 1010.32 1009.70 1009.26 1008.68 1007.97 1007.56 1007.29 1007.28 1006.84 1006.58 1006.51 1006.49 1006.82 1007.29 1008.00 1009.25 1009.97 1009.91 1009.66 1009.36 1009.88 1010.75 1011.98 1013.35 1014.41 1015.26 1015.15 1013.77 1012.57 1012.29 1012.24 1012.13 1011.98 1011.54 1011.20 1011.47
1019.57 1018.55 1016.33 1015.23 1015.04 1014.39 1013.64 1012.42 1011.30 1010.26 1009.80 1009.31 1008.53 1008.00 1007.79 1007.53 1007.48 1007.12 1006.77 1006.59 1006.80 1007.31 1007.39 1007.80 1009.68 1009.92 1010.06 1009.79 1009.88 1010.49 1011.04 1011.99 1012.81 1014.08 1014.86 1014.57 1013.71 1012.91 1012.78 1012.85 1012.64 1012.57 1012.30 1011.95 1011.91
1019.85 1019.27 1018.26 1017.02 1016.08 1015.22 1014.36 1013.25 1012.17 1011.09 1009.82 1009.26 1008.61 1008.40 1008.07 1007.94 1007.66 1007.37 1007.29 1007.01 1007.22 1007.68 1008.10 1008.47 1010.07 1010.56 1010.60 1010.15 1010.18 1010.51 1010.95 1011.73 1012.45 1013.14 1013.74 1013.65 1013.75 1013.17 1013.22 1013.49 1013.39 1013.26 1013.03 1012.91 1012.95
1020.06 1019.71 1018.71 1017.81 1016.79 1015.74 1014.88 1013.83 1012.91 1012.21 1011.24 1009.81 1009.22 1008.50 1008.22 1008.22 1007.87 1007.78 1007.97 1007.84 1007.93 1008.26 1008.81 1009.40 1010.96 1011.19 1011.62 1011.05 1010.79 1011.07 1011.28 1011.65 1012.28 1012.81 1013.19 1013.41 1013.50 1013.25 1013.61 1013.87 1014.07 1014.20 1014.02 1014.13 1013.99
1019.97 1019.75 1019.28 1018.16 1017.07 1016.17 1015.34 1014.48 1013.61 1013.12 1011.27 1010.49 1009.81 1009.30 1008.74 1008.45 1008.19 1008.07 1008.33 1008.48 1008.78 1009.10 1009.72 1010.19 1011.28 1012.48 1013.04 1012.35 1011.61 1011.56 1011.19 1011.53 1012.16 1012.59 1012.95 1013.41 1013.27 1013.66 1014.22 1014.52 1014.65 1014.73 1014.68 1014.67 1014.74
Wind_Speed
16 16 15 15 15 16 17 17 18 17 17 18 16 14 13 12 10 2 6 7 3 7 4 5 1 1 3 2 2 3 6 1 3 1 1 4 4 2 1 2 1 1 2 7 19
17 16 15 15 15 16 16 16 18 18 16 17 16 13 11 10 2 5 9 5 7 7 4 4 2 1 3 2 2 5 4 8 6 3 4 5 5 5 1 1 1 3 8 17 17
16 17 17 17 18 17 17 17 17 18 17 16 15 12 10 5 2 2 2 8 8 7 3 3 2 2 2 1 3 3 5 5 4 6 6 7 4 2 5 3 7 6 12 15 17
17 18 18 18 19 19 19 18 18 20 19 15 14 12 10 1 3 2 8 13 11 6 4 4 3 3 3 1 1 2 6 4 1 4 5 7 5 4 5 6 3 10 14 13 13
19 19 20 18 19 20 20 19 18 19 18 13 12 10 3 3 7 5 12 11 6 4 5 3 2 2 3 2 1 2 3 1 1 6 7 7 4 4 2 8 4 11 11 10 8
18 19 20 20 19 21 21 20 16 16 16 10 10 8 2 2 3 8 10 6 6 4 3 4 2 3 2 1 3 3 3 6 4 4 6 7 3 4 5 4 3 9 13 8 6
19 19 21 21 21 22 22 21 19 16 14 7 7 3 1 9 3 6 7 5 4 4 4 3 4 1 4 3 1 3 5 1 4 3 4 5 3 1 4 4 6 7 1 8 6
18 20 21 22 22 22 23 23 21 19 7 3 5 1 7 3 5 5 3 2 3 4 2 4 3 2 1 2 7 4 5 5 4 4 3 6 4 8 1 2 6 4 3 5 3
18 19 21 23 23 24 25 24 17 1 5 4 1 1 9 6 2 5 5 3 4 2 3 1 3 3 4 4 5 7 3 3 7 4 1 5 1 1 3 4 5 5 3 3 5
19 20 23 24 24 25 28 14 0 3 3 3 4 2 5 1 3 4 3 3 3 2 3 5 6 3 3 5 3 2 2 0 1 5 8 5 2 2 1 2 6 6 8 2 2
20 21 23 25 25 25 12 3 6 4 2 6 5 4 6 5 1 3 4 5 3 6 2 3 4 6 6 5 5 4 3 3 3 2 7 4 4 3 3 3 6 8 10 7 6
22 21 24 25 25 20 3 4 5 3 10 9 12 7 5 2 1 1 6 4 3 2 2 5 4 2 5 6 6 5 4 5 3 2 8 2 4 4 3 4 4 7 9 9 7
19 20 23 27 29 3 3 2 4 3 3 8 6 5 6 8 5 5 7 4 4 4 5 5 5 2 6 3 1 3 6 5 8 7 9 8 7 4 4 5 6 7 7 7 7
21 21 21 30 4 5 5 1 5 4 4 8 5 8 5 5 2 6 6 6 1 7 5 5 4 1 5 3 5 1 5 6 9 5 6 2 4 6 6 8 5 9 9 9 6
19 20 17 8 5 4 6 8 8 1 4 2 4 1 2 8 5 2 3 3 5 4 4 6 2 4 3 4 6 3 5 5 4 5 5 1 4 5 3 7 8 10 10 9 8
20 18 16 2 2 9 11 10 2 5 6 4 2 4 4 2 1 3 4 3 2 2 1 6 2 3 5 4 2 8 8 10 6 4 3 2 5 4 7 10 8 7 8 8 9
22 23 11 2 5 4 6 4 4 3 7 7 3 3 3 3 2 4 5 3 4 3 4 5 2 3 3 5 3 6 7 4 4 5 5 0 2 8 5 6 14 15 10 8 6
25 25 3 6 2 5 4 4 2 3 5 4 3 1 7 5 3 3 5 5 1 4 2 3 5 1 2 3 7 3 7 8 6 4 3 4 3 4 5 4 1 3 4 5 7
23 4 4 4 4 2 4 2 6 3 4 7 9 2 2 3 2 3 6 7 8 8 7 4 4 3 2 3 4 4 4 5 9 3 2 2 6 5 3 4 4 6 7 10 8
5 5 5 3 5 2 4 4 3 2 5 4 4 3 3 3 4 5 4 4 7 10 4 3 2 2 1 3 8 4 6 5 4 5 3 4 3 5 2 7 7 8 12 9 8
4 5 5 4 1 5 3 5 4 5 5 4 3 5 4 1 5 4 4 4 6 5 6 5 3 3 2 2 5 3 3 8 6 4 6 1 6 7 6 5 8 8 8 10 12
2 4 3 1 4 1 3 5 2 2 2 6 3 6 4 2 2 4 8 4 3 8 9 4 5 3 1 6 1 3 5 5 6 3 3 4 7 2 3 7 6 10 6 9 10
2 4 5 3 2 2 4 2 1 3 3 3 4 4 0 2 2 3 3 1 2 8 9 8 0 4 7 7 3 6 3 5 6 4 4 6 7 2 5 5 5 7 9 8 7
2 3 5 5 1 1 4 4 3 4 6 5 5 3 2 2 1 2 1 2 2 2 5 10 4 8 9 9 5 5 3 4 5 5 4 6 5 6 8 7 8 8 8 8 7
2 2 2 3 3 3 1 3 3 5 3 2 3 4 3 2 2 2 3 1 3 0 4 5 5 4 4 3 3 3 5 4 2 5 6 4 5 7 5 5 6 6 5 6 5
1 1 3 2 3 3 3 2 2 5 4 5 3 9 2 4 4 3 1 3 1 5 3 3 2 2 6 5 4 4 6 4 2 3 3 2 6 0 3 4 6 7 6 6 6
1 2 3 3 4 2 1 3 3 4 6 7 6 2 3 2 2 1 1 1 3 2 2 4 7 4 3 2 4 4 3 4 3 1 3 3 6 1 4 4 4 5 5 5 6
Wind_Direction
346 346 340 337 332 327 336 340 332 334 328 317 318 321 321 320 326 117 242 205 171 110 132 115 129 31 65 81 86 119 65 244 240 216 113 187 137 86 159 118 153 216 199 139 138
344 339 336 335 330 328 335 336 329 325 326 317 315 319 313 330 22 239 249 159 106 151 96 117 125 44 40 101 60 90 105 212 210 215 191 180 156 123 71 268 263 87 77 137 137
344 337 334 335 332 330 335 330 328 321 321 318 314 312 313 328 352 245 160 165 166 178 106 111 100 77 73 28 169 159 186 203 249 236 155 159 87 88 131 260 228 160 157 162 155
344 339 336 334 333 331 328 325 327 320 317 318 311 313 313 52 124 35 109 127 140 167 109 89 63 78 87 60 58 26 248 216 197 142 101 120 127 148 199 249 264 156 174 176 161
340 338 335 332 331 326 321 321 319 313 310 317 311 312 309 351 253 123 115 126 124 133 127 125 107 124 93 269 34 156 274 138 227 88 131 125 129 147 238 279 82 140 167 180 180
336 337 330 328 328 324 320 315 314 306 307 321 309 303 359 282 105 147 127 136 149 129 128 153 154 182 131 256 126 232 277 282 73 204 141 106 118 144 245 268 133 165 197 109 125
337 334 329 325 326 325 319 315 310 307 310 319 291 282 344 234 77 160 144 159 175 156 145 204 146 100 134 298 235 316 326 127 27 146 131 130 74 288 246 223 190 216 58 95 104
336 332 326 322 325 322 318 315 316 306 292 252 229 280 249 264 119 149 159 138 197 212 201 177 147 152 146 317 20 21 54 45 323 351 107 155 257 344 61 193 204 226 281 61 75
332 330 325 322 323 325 320 318 323 54 94 147 198 87 270 311 215 188 153 136 154 200 236 183 108 86 33 85 16 8 104 50 336 55 50 57 228 81 5 358 246 262 270 45 344
333 332 327 322 328 327 323 316 319 104 74 217 258 14 267 336 250 166 181 103 76 305 80 65 48 58 37 74 178 78 40 90 236 313 42 66 70 74 243 263 272 301 291 232 252
333 335 326 324 329 328 341 30 6 346 81 229 238 255 284 274 261 223 142 114 86 50 68 14 72 221 212 164 156 138 192 199 265 126 81 19 88 18 37 253 276 281 278 279 280
333 334 325 325 329 323 325 60 86 170 304 241 248 257 269 298 303 244 122 115 109 169 80 18 234 159 139 171 177 166 175 175 56 53 85 67 31 355 331 247 219 258 278 281 285
328 329 329 327 323 27 312 207 63 81 230 289 198 201 213 149 202 231 125 140 130 158 187 178 238 63 142 229 289 167 160 176 146 101 41 101 354 324 303 319 325 295 278 273 262
328 330 336 332 10 339 279 32 288 194 27 279 243 255 138 150 235 192 164 142 165 191 180 218 265 269 143 211 133 245 170 138 130 120 164 201 240 270 247 282 272 268 282 275 260
326 326 329 331 293 318 282 336 319 118 350 254 231 61 136 146 169 212 202 76 185 183 100 257 268 49 346 204 164 183 95 112 107 91 99 343 81 272 107 256 236 243 260 261 245
320 316 327 148 239 245 311 313 57 38 251 331 148 142 127 135 112 96 113 63 156 171 347 241 256 228 209 77 128 161 67 38 46 80 56 251 143 254 186 204 203 231 239 246 251
317 310 309 221 238 350 312 350 39 194 330 325 323 153 164 149 182 125 137 173 165 90 3 331 288 277 144 87 75 74 67 14 13 18 208 243 58 243 247 224 182 204 212 226 247
320 313 248 217 280 338 2 52 199 280 273 320 311 285 170 156 213 151 118 166 219 90 102 114 345 147 173 178 164 97 142 150 176 194 243 15 240 263 253 205 52 153 237 209 215
319 321 292 267 206 217 100 120 217 221 312 322 323 99 240 197 142 149 176 188 193 167 169 144 276 324 56 124 111 181 71 151 102 19 83 253 292 341 52 134 184 185 190 215 211
330 345 289 308 152 106 86 209 248 260 312 358 343 2 210 184 158 145 197 204 193 191 150 205 123 4 115 80 42 111 148 75 18 133 195 308 275 243 231 222 196 208 215 216 217
28 360 273 110 90 52 153 231 276 262 19 345 318 294 298 110 178 180 217 262 179 193 140 147 111 274 37 36 176 58 62 57 110 111 144 126 279 219 255 275 210 245 235 215 214
21 347 308 64 46 330 183 205 251 293 285 267 231 239 240 275 227 208 215 244 133 149 160 182 136 114 153 315 16 110 127 119 114 212 73 133 260 313 287 298 270 278 232 207 215
18 269 309 88 142 288 280 310 289 292 275 291 272 241 314 308 308 207 188 119 243 153 164 181 253 76 359 2 4 72 90 109 109 93 185 134 259 247 331 335 317 291 298 289 219
42 348 317 37 3 99 10 255 276 263 259 226 265 259 284 311 32 299 53 2 81 112 99 90 95 154 179 199 147 117 84 77 102 105 167 225 290 310 325 333 326 333 317 316 320
41 262 183 318 348 4 220 306 322 310 273 274 303 226 253 228 352 1 321 21 64 71 63 106 106 104 40 87 83 118 139 151 131 164 146 229 209 272 296 309 299 304 356 22 18
128 25 350 273 293 300 344 50 335 318 267 273 201 302 227 204 198 204 264 24 344 7 75 18 119 110 33 25 79 126 148 176 188 138 292 339 278 210 358 6 13 7 23 29 30
286 303 109 289 338 83 270 298 265 355 264 248 283 252 198 208 178 126 123 86 357 33 91 71 123 98 174 347 62 360 222 166 116 32 177 225 239 47 41 26 1 357 40 56 60